GW4598 Weather Reports


Display with metric or nautical units.
time (UTC)temp
F
wind
direction
speed
MPH
gust
MPH
rain 1hr
in
rain 24hr
in
rain mn
in
humidity
%
barometer
mb
20260504225729 65 229 3.0 3.0 0.00 0.00 0.00 47 1007.6
20260504225225 65 187 1.0 2.0 0.00 0.00 0.00 46 1007.5
20260504224722 65 169 1.0 2.0 0.00 0.00 0.00 48 1007.4
20260504224220 65 226 6.0 7.0 0.00 0.00 0.00 46 1007.4
20260504223716 66 140 1.0 1.0 0.00 0.00 0.00 44 1007.4
20260504223211 65 248 4.0 6.0 0.00 0.00 0.00 45 1007.4
20260504222709 66 174 7.0 10.0 0.00 0.00 0.00 44 1007.4
20260504222205 66 327 3.0 5.0 0.00 0.00 0.00 47 1007.4
20260504221703 65 233 3.0 5.0 0.00 0.00 0.00 46 1007.3
20260504221200 66 205 2.0 2.0 0.00 0.00 0.00 46 1007.4
20260504220656 66 229 8.0 10.0 0.00 0.00 0.00 44 1007.3
20260504220154 66 257 6.0 7.0 0.00 0.00 0.00 43 1007.3
20260504215650 66 237 3.0 3.0 0.00 0.00 0.00 44 1007.3
20260504215147 66 202 2.0 3.0 0.00 0.00 0.00 41 1007.5
20260504214643 66 281 1.0 1.0 0.00 0.00 0.00 44 1007.3
20260504214140 66 248 5.0 6.0 0.00 0.00 0.00 43 1007.4
20260504213636 66 241 8.0 9.0 0.00 0.00 0.00 47 1007.2
20260504213133 66 237 9.0 9.0 0.00 0.00 0.00 42 1007.4
20260504212629 66 245 5.0 8.0 0.00 0.00 0.00 43 1007.3
20260504212126 66 245 9.0 11.0 0.00 0.00 0.00 45 1007.0
20260504211624 67 242 5.0 7.0 0.00 0.00 0.00 43 1007.3
20260504211120 67 216 4.0 5.0 0.00 0.00 0.00 41 1007.3
20260504210618 67 303 3.0 5.0 0.00 0.00 0.00 43 1007.1
20260504210114 67 237 4.0 7.0 0.00 0.00 0.00 43 1007.3
20260504205612 66 216 3.0 3.0 0.00 0.00 0.00 44 1007.5
20260504205109 66 292 3.0 6.0 0.00 0.00 0.00 41 1007.4
20260504204608 66 87 1.0 1.0 0.00 0.00 0.00 44 1007.1
20260504204106 67 268 8.0 8.0 0.00 0.00 0.00 42 1007.1
20260504203604 66 337 3.0 3.0 0.00 0.00 0.00 43 1007.2
20260504203101 66 221 3.0 5.0 0.00 0.00 0.00 42 1007.0
20260504202556 66 237 6.0 8.0 0.00 0.00 0.00 42 1007.1
20260504202054 65 231 3.0 3.0 0.00 0.00 0.00 48 1007.0
20260504201550 65 241 4.0 5.0 0.00 0.00 0.00 46 1007.0
20260504201048 65 244 9.0 9.0 0.00 0.00 0.00 46 1007.1
20260504200544 65 276 6.0 8.0 0.00 0.00 0.00 46 1007.0
20260504200042 65 251 3.0 3.0 0.00 0.00 0.00 45 1007.0
20260504195537 64 237 11.0 13.0 0.00 0.00 0.00 46 1007.1
20260504195034 65 220 10.0 11.0 0.00 0.00 0.00 48 1007.1
20260504194531 65 240 14.0 15.0 0.00 0.00 0.00 47 1007.2
20260504194026 65 153 11.0 13.0 0.00 0.00 0.00 46 1007.2
20260504193523 66 203 6.0 7.0 0.00 0.00 0.00 44 1007.3
20260504193022 64 294 5.0 7.0 0.00 0.00 0.00 46 1007.4
20260504192520 64 232 11.0 13.0 0.00 0.00 0.00 48 1007.3
20260504192018 64 228 9.0 11.0 0.00 0.00 0.00 47 1007.3
20260504191515 64 238 2.0 5.0 0.00 0.00 0.00 47 1007.2
20260504191011 64 212 4.0 6.0 0.00 0.00 0.00 46 1007.3
20260504190507 63 217 7.0 9.0 0.00 0.00 0.00 49 1007.5
20260504190003 63 201 2.0 2.0 0.00 0.00 0.00 46 1007.5
20260504185501 63 231 9.0 10.0 0.00 0.00 0.00 51 1007.5
20260504184957 64 249 5.0 6.0 0.00 0.00 0.00 48 1007.4
20260504184452 64 176 4.0 5.0 0.00 0.00 0.00 43 1007.5
20260504183948 64 225 4.0 6.0 0.00 0.00 0.00 45 1007.7
20260504183446 63 289 4.0 6.0 0.00 0.00 0.00 46 1007.5
20260504182944 64 242 7.0 8.0 0.00 0.00 0.00 43 1007.4
20260504182440 63 270 6.0 8.0 0.00 0.00 0.00 44 1007.4
20260504181938 63 226 7.0 8.0 0.00 0.00 0.00 50 1007.6
20260504181434 63 28 3.0 5.0 0.00 0.00 0.00 45 1007.5
20260504180933 63 234 6.0 8.0 0.00 0.00 0.00 47 1007.6
20260504180432 63 243 13.0 16.0 0.00 0.00 0.00 43 1007.3
20260504175930 63 225 11.0 13.0 0.00 0.00 0.00 43 1007.4
20260504175426 63 226 11.0 14.0 0.00 0.00 0.00 49 1007.4
20260504174924 63 234 6.0 7.0 0.00 0.00 0.00 47 1007.3
20260504174421 62 240 10.0 13.0 0.00 0.00 0.00 49 1007.4
20260504173919 62 215 9.0 10.0 0.00 0.00 0.00 46 1007.4
20260504173415 62 216 9.0 10.0 0.00 0.00 0.00 47 1007.6
20260504172913 62 241 9.0 10.0 0.00 0.00 0.00 50 1007.4
20260504172408 62 244 11.0 14.0 0.00 0.00 0.00 47 1007.6
20260504171905 61 237 7.0 8.0 0.00 0.00 0.00 47 1007.6
20260504171402 62 234 8.0 10.0 0.00 0.00 0.00 46 1007.6
20260504170859 62 238 4.0 6.0 0.00 0.00 0.00 46 1007.5
20260504170355 62 223 5.0 7.0 0.00 0.00 0.00 46 1007.5
20260504160314 60 212 14.0 17.0 0.00 0.00 0.00 48 1007.8
20260504150739 58 227 9.0 13.0 0.00 0.00 0.00 53 1008.5
20260504150236 58 223 17.0 18.0 0.00 0.00 0.00 53 1008.4
20260504141205 55 222 8.0 10.0 0.00 0.00 0.00 59 1009.0
20260504140702 55 224 7.0 9.0 0.00 0.00 0.00 58 1009.0
20260504140158 55 208 12.0 14.0 0.00 0.00 0.00 60 1009.1
20260504130626 50 238 7.0 8.0 0.00 0.00 0.00 66 1009.7
20260504130123 50 127 0.0 1.0 0.00 0.00 0.00 67 1009.6
20260504110514 44 218 6.0 7.0 0.00 0.00 0.00 77 1010.5
20260504100436 44 223 7.0 8.0 0.00 0.00 0.00 76 1010.2
20260504081829 43 224 3.0 3.0 0.00 0.00 0.00 70 1010.3
20260504081326 43 307 4.0 5.0 0.00 0.00 0.00 70 1010.3
20260504080816 42 210 2.0 2.0 0.00 0.00 0.00 72 1010.2
20260504080314 42 153 4.0 5.0 0.00 0.00 0.00 74 1010.3
20260504070240 34 62 0.0 0.0 0.00 0.00 0.00 96 1010.1
20260504060201 32 85 0.0 0.0 0.00 0.00 0.00 95 1010.4
20260504050629 34 77 1.0 1.0 0.00 0.00 0.00 90 1010.2
20260504050126 35 80 0.0 1.0 0.00 0.00 0.00 88 1010.3
20260504045623 36 83 0.0 1.0 0.00 0.00 0.00 88 1010.3
20260504045118 37 160 1.0 1.0 0.00 0.00 0.00 88 1010.3
20260504044616 37 210 3.0 3.0 0.00 0.00 0.00 89 1010.5
20260504044112 36 205 4.0 5.0 0.00 0.00 0.00 90 1010.3
20260504043609 35 102 0.0 0.0 0.00 0.00 0.00 91 1010.5
20260504043107 35 102 0.0 1.0 0.00 0.00 0.00 91 1010.3
20260504042604 35 102 0.0 0.0 0.00 0.00 0.00 89 1010.3
20260504042100 35 102 0.0 0.0 0.00 0.00 0.00 89 1010.2
20260504041556 36 102 0.0 0.0 0.00 0.00 0.00 89 1010.4
20260504041053 35 105 0.0 1.0 0.00 0.00 0.00 88 1010.3
20260504040550 36 102 0.0 1.0 0.00 0.00 0.00 88 1010.1
20260504040047 36 101 0.0 1.0 0.00 0.00 0.00 86 1010.1
20260504035543 36 104 0.0 0.0 0.00 0.01 0.01 86 1010.0
20260504035040 37 106 1.0 1.0 0.00 0.01 0.01 85 1010.2
20260504034538 38 165 1.0 2.0 0.00 0.01 0.01 85 1010.0
20260504034034 38 135 1.0 1.0 0.00 0.01 0.01 84 1010.2
20260504033532 38 116 0.0 0.0 0.00 0.01 0.01 83 1010.0
20260504033030 39 198 3.0 3.0 0.00 0.01 0.01 81 1010.1
20260504032526 39 223 3.0 3.0 0.00 0.01 0.01 81 1010.0
20260504032023 40 218 4.0 5.0 0.00 0.01 0.01 83 1010.0
20260504031520 41 220 5.0 6.0 0.00 0.01 0.01 82 1009.9
20260504031016 40 214 3.0 3.0 0.00 0.01 0.01 79 1009.9
20260504030514 41 226 4.0 5.0 0.00 0.01 0.01 78 1010.0
20260504030010 41 225 4.0 5.0 0.00 0.01 0.01 78 1010.0
20260504025507 40 209 3.0 3.0 0.00 0.01 0.01 76 1010.0
20260504025004 41 224 2.0 2.0 0.00 0.01 0.01 79 1009.8
20260504024500 41 204 2.0 3.0 0.00 0.01 0.01 77 1009.8
20260504023958 41 119 1.0 1.0 0.00 0.01 0.01 75 1009.7
20260504023454 42 116 0.0 0.0 0.00 0.01 0.01 78 1009.8
20260504022950 42 194 2.0 3.0 0.00 0.01 0.01 78 1009.9
20260504022446 41 218 3.0 5.0 0.00 0.01 0.01 83 1009.8
20260504021943 40 79 0.0 0.0 0.00 0.01 0.01 74 1009.8
20260504021440 40 78 1.0 1.0 0.00 0.01 0.01 74 1009.8
20260504020937 40 86 0.0 1.0 0.00 0.01 0.01 77 1009.8
20260504020434 40 80 1.0 1.0 0.00 0.01 0.01 77 1009.8
20260504015931 40 83 0.0 1.0 0.00 0.01 0.01 77 1009.9
20260504015426 41 84 0.0 1.0 0.00 0.01 0.01 75 1009.7
20260504014923 43 93 0.0 0.0 0.00 0.01 0.01 76 1009.8
20260504014419 43 150 2.0 2.0 0.00 0.01 0.01 73 1009.8
20260504013916 43 239 5.0 5.0 0.00 0.01 0.01 78 1009.9
20260504013415 44 240 4.0 5.0 0.00 0.01 0.01 81 1009.9
20260504012910 43 236 5.0 6.0 0.00 0.01 0.01 77 1009.9
20260504012408 43 234 5.0 6.0 0.00 0.01 0.01 75 1009.8
20260504011905 43 231 2.0 3.0 0.00 0.01 0.01 74 1009.9
20260504011402 44 228 3.0 3.0 0.00 0.01 0.01 76 1009.9
20260504010858 44 212 2.0 2.0 0.00 0.01 0.01 71 1009.9
20260504010354 43 84 0.0 1.0 0.00 0.01 0.01 67 1009.7
20260504005850 44 84 1.0 1.0 0.00 0.01 0.01 65 1009.7
20260504005347 43 163 2.0 2.0 0.00 0.01 0.01 65 1009.6
20260504004845 43 90 0.0 0.0 0.00 0.01 0.01 66 1009.4
20260504004343 44 105 0.0 0.0 0.00 0.01 0.01 64 1009.2
20260504003839 44 75 0.0 0.0 0.00 0.01 0.01 64 1009.5
20260504003336 44 88 0.0 0.0 0.00 0.01 0.01 66 1009.2
20260504002832 44 106 1.0 2.0 0.00 0.01 0.01 63 1009.3
20260504002329 44 98 0.0 0.0 0.00 0.01 0.01 61 1009.2
20260504001827 44 101 0.0 0.0 0.00 0.01 0.01 61 1009.2
20260504001324 44 84 0.0 1.0 0.00 0.01 0.01 60 1009.1
20260504000821 45 192 2.0 3.0 0.00 0.01 0.01 64 1009.0
20260504000318 45 93 0.0 1.0 0.00 0.01 0.01 61 1009.0
20260503235815 45 148 1.0 2.0 0.00 0.01 0.01 60 1008.9
20260503235313 45 226 1.0 2.0 0.00 0.01 0.01 61 1008.7
20260503234810 45 101 0.0 1.0 0.00 0.01 0.01 60 1008.7
20260503234308 46 206 3.0 5.0 0.00 0.01 0.01 60 1008.6
20260503233806 46 241 3.0 3.0 0.00 0.01 0.01 58 1008.6
20260503233301 46 64 1.0 1.0 0.00 0.01 0.01 58 1008.6
20260503232758 46 337 2.0 2.0 0.00 0.01 0.01 57 1008.2
20260503232255 46 130 1.0 2.0 0.00 0.01 0.01 60 1008.4
20260503231753 46 69 1.0 1.0 0.00 0.01 0.01 57 1008.4
20260503231250 46 145 2.0 2.0 0.00 0.01 0.01 56 1008.5
20260503230745 46 113 2.0 3.0 0.00 0.01 0.01 61 1008.4
20260503230243 47 91 0.0 1.0 0.00 0.01 0.01 61 1008.2